Kuiper-00196

operational
NORAD ID: 67144 Int'l Des: 2025-301 Owner: KUIP Country: US Constellation: kuiper
LEOCIRCULAR

About Kuiper-00196

Description loading...

Live Position

Loading 3D Globe...

Upcoming Passes

Altitude History

Altitude vs Time

uPlot chart will show altitude changes over time

Two-Line Element Set

1 67144U 25301M 26034.51989486 .00033667 00000-0 90857-3 0 9995
2 67144 51.8703 230.2381 0002685 214.5384 145.5428 15.37465431 8483
Epoch: Feb 3, 2026 • Age: 13 hours

Current Status

Altitude 463.1 km
Velocity 7.64 km/s
Sub-Earth Point -35.95°S, 81.43°W
Launch Date Dec 16, 2025
Age 0.1 years
Type internet

Technical Details

Classification Payload
Mass 490.00 kg
Dry Mass 490.00 kg
Total Mass 490.00 kg
Length 1.80 m
Diameter 0.70 m
Span 5.00 m
Shape Box + 2 pan
Manufacturer KUIP
Bus Type Kuiper
Phase Status In Orbit
Owner/State KUIP/US

Large Constellations

Loading constellations...